| time (UTC) | temp C | wind direction | speed KPH | gust KPH | rain 1hr cm | rain 24hr cm | rain mn cm | humidity % | barometer mb |
| 20260503050016 | 7 | 135 | 1.6 | 4.8 | 0.00 | 0.00 | 0.00 | 45 | 998.8 |
| 20260503045016 | 7 | 158 | 4.8 | 8.0 | 0.00 | 0.00 | 0.00 | 46 | 999.0 |
| 20260503044036 | 6 | 135 | 1.6 | 3.2 | 0.00 | 0.00 | 0.00 | 47 | 999.0 |
| 20260503043024 | 6 | 0.0 | 4.8 | 0.00 | 0.00 | 0.00 | 50 | 999.4 | |
| 20260503042016 | 5 | 23 | 3.2 | 3.2 | 0.00 | 0.00 | 0.00 | 52 | 999.4 |
| 20260503041016 | 5 | 158 | 8.0 | 14.5 | 0.00 | 0.00 | 0.00 | 52 | 999.0 |
| 20260503040016 | 5 | 158 | 8.0 | 14.5 | 0.00 | 0.00 | 0.00 | 52 | 999.2 |
| 20260503035017 | 5 | 135 | 8.0 | 16.1 | 0.00 | 0.00 | 0.00 | 52 | 999.5 |
| 20260503034017 | 5 | 135 | 8.0 | 12.9 | 0.00 | 0.00 | 0.00 | 51 | 999.6 |
| 20260503033017 | 5 | 135 | 6.4 | 14.5 | 0.00 | 0.00 | 0.00 | 50 | 999.7 |
| 20260503032018 | 5 | 158 | 8.0 | 12.9 | 0.00 | 0.00 | 0.00 | 50 | 999.8 |
| 20260503031016 | 5 | 158 | 8.0 | 12.9 | 0.00 | 0.00 | 0.00 | 50 | 1000.0 |
| 20260503030017 | 5 | 135 | 8.0 | 14.5 | 0.00 | 0.00 | 0.00 | 50 | 1000.2 |
| 20260503025516 | 5 | 135 | 8.0 | 12.9 | 0.00 | 0.00 | 0.00 | 50 | 1000.3 |
| 20260503024537 | 5 | 158 | 6.4 | 14.5 | 0.00 | 0.00 | 0.00 | 48 | 1000.3 |
| 20260503023516 | 5 | 158 | 8.0 | 14.5 | 0.00 | 0.00 | 0.00 | 48 | 1000.5 |
| 20260503022517 | 5 | 158 | 8.0 | 14.5 | 0.00 | 0.00 | 0.00 | 48 | 1000.6 |
| 20260503021516 | 5 | 135 | 6.4 | 12.9 | 0.00 | 0.00 | 0.00 | 46 | 1000.6 |
| 20260503020517 | 5 | 158 | 8.0 | 12.9 | 0.00 | 0.00 | 0.00 | 46 | 1000.7 |
| 20260503015517 | 5 | 135 | 6.4 | 14.5 | 0.00 | 0.00 | 0.00 | 46 | 1000.8 |
| 20260503014517 | 5 | 135 | 8.0 | 19.3 | 0.00 | 0.00 | 0.00 | 45 | 1000.8 |
| 20260503013517 | 5 | 158 | 8.0 | 12.9 | 0.00 | 0.00 | 0.00 | 45 | 1001.0 |
| 20260503012517 | 6 | 158 | 6.4 | 11.3 | 0.00 | 0.00 | 0.00 | 44 | 1001.0 |
| 20260503011517 | 6 | 113 | 6.4 | 11.3 | 0.00 | 0.00 | 0.00 | 43 | 1001.0 |
| 20260503010517 | 6 | 135 | 8.0 | 12.9 | 0.00 | 0.00 | 0.00 | 43 | 1001.1 |
| 20260503005517 | 6 | 135 | 6.4 | 12.9 | 0.00 | 0.00 | 0.00 | 43 | 1001.4 |
| 20260503004537 | 6 | 135 | 6.4 | 11.3 | 0.00 | 0.00 | 0.00 | 44 | 1001.4 |
| 20260503003516 | 7 | 135 | 4.8 | 11.3 | 0.00 | 0.00 | 0.00 | 43 | 1001.5 |
| 20260503002516 | 7 | 135 | 6.4 | 17.7 | 0.00 | 0.00 | 0.00 | 41 | 1001.5 |
| 20260503001516 | 8 | 158 | 6.4 | 11.3 | 0.00 | 0.00 | 0.00 | 40 | 1001.6 |
| 20260503000516 | 9 | 158 | 6.4 | 14.5 | 0.00 | 0.00 | 0.00 | 38 | 1001.7 |
| 20260502235516 | 10 | 90 | 1.6 | 8.0 | 0.00 | 0.00 | 0.00 | 34 | 1001.8 |
| 20260502234536 | 11 | 0.0 | 4.8 | 0.00 | 0.00 | 0.00 | 28 | 1001.7 | |
| 20260502233516 | 11 | 0.0 | 4.8 | 0.00 | 0.00 | 0.00 | 26 | 1001.9 | |
| 20260502232516 | 11 | 248 | 3.2 | 6.4 | 0.00 | 0.00 | 0.00 | 26 | 1002.0 |
| 20260502231516 | 12 | 248 | 1.6 | 4.8 | 0.00 | 0.00 | 0.00 | 25 | 1002.1 |
| 20260502230536 | 12 | 270 | 4.8 | 14.5 | 0.00 | 0.00 | 0.00 | 24 | 1002.2 |
| 20260502225516 | 12 | 315 | 1.6 | 8.0 | 0.00 | 0.00 | 0.00 | 26 | 1002.3 |
| 20260502224516 | 12 | 248 | 4.8 | 11.3 | 0.00 | 0.00 | 0.00 | 25 | 1002.3 |
| 20260502223536 | 12 | 248 | 3.2 | 8.0 | 0.00 | 0.00 | 0.00 | 25 | 1002.4 |
| 20260502222517 | 12 | 270 | 4.8 | 11.3 | 0.00 | 0.00 | 0.00 | 25 | 1002.6 |
| 20260502221517 | 12 | 45 | 3.2 | 8.0 | 0.00 | 0.00 | 0.00 | 25 | 1002.7 |
| 20260502220517 | 12 | 315 | 3.2 | 6.4 | 0.00 | 0.00 | 0.00 | 25 | 1002.8 |
| 20260502215517 | 11 | 293 | 3.2 | 8.0 | 0.00 | 0.00 | 0.00 | 26 | 1002.7 |
| 20260502214517 | 11 | 315 | 3.2 | 8.0 | 0.00 | 0.00 | 0.00 | 26 | 1002.7 |
| 20260502213516 | 11 | 293 | 3.2 | 8.0 | 0.00 | 0.00 | 0.00 | 29 | 1002.9 |
| 20260502212516 | 11 | 248 | 4.8 | 9.7 | 0.00 | 0.00 | 0.00 | 28 | 1003.0 |
| 20260502211537 | 11 | 248 | 6.4 | 12.9 | 0.00 | 0.00 | 0.00 | 27 | 1003.3 |
| 20260502210516 | 11 | 270 | 8.0 | 16.1 | 0.00 | 0.00 | 0.00 | 27 | 1003.4 |
| 20260502205516 | 11 | 270 | 4.8 | 12.9 | 0.00 | 0.00 | 0.00 | 28 | 1003.5 |
| 20260502204516 | 11 | 315 | 6.4 | 11.3 | 0.00 | 0.00 | 0.00 | 28 | 1003.7 |
| 20260502203516 | 10 | 248 | 8.0 | 16.1 | 0.00 | 0.00 | 0.00 | 30 | 1003.8 |
| 20260502202516 | 10 | 270 | 8.0 | 14.5 | 0.00 | 0.00 | 0.00 | 28 | 1004.0 |
| 20260502201516 | 10 | 270 | 6.4 | 12.9 | 0.00 | 0.00 | 0.00 | 30 | 1004.1 |
| 20260502200517 | 10 | 270 | 6.4 | 9.7 | 0.00 | 0.00 | 0.00 | 30 | 1004.3 |
| 20260502195516 | 10 | 248 | 11.3 | 19.3 | 0.00 | 0.00 | 0.00 | 30 | 1004.3 |
| 20260502194516 | 10 | 248 | 9.7 | 25.7 | 0.00 | 0.00 | 0.00 | 28 | 1004.5 |
| 20260502193517 | 10 | 270 | 8.0 | 17.7 | 0.00 | 0.00 | 0.00 | 28 | 1004.6 |
| 20260502192516 | 11 | 270 | 9.7 | 19.3 | 0.00 | 0.00 | 0.00 | 29 | 1004.8 |
| 20260502191516 | 11 | 270 | 8.0 | 19.3 | 0.00 | 0.00 | 0.00 | 29 | 1004.9 |
| 20260502190516 | 10 | 315 | 8.0 | 24.1 | 0.00 | 0.00 | 0.00 | 30 | 1005.2 |
| 20260502185517 | 11 | 270 | 11.3 | 17.7 | 0.00 | 0.00 | 0.00 | 30 | 1005.2 |
| 20260502184517 | 11 | 270 | 9.7 | 17.7 | 0.00 | 0.00 | 0.00 | 31 | 1005.3 |
| 20260502183516 | 10 | 248 | 9.7 | 19.3 | 0.00 | 0.00 | 0.00 | 32 | 1005.4 |
| 20260502182537 | 10 | 293 | 4.8 | 12.9 | 0.00 | 0.00 | 0.00 | 33 | 1005.5 |
| 20260502181537 | 10 | 270 | 11.3 | 22.5 | 0.00 | 0.00 | 0.00 | 32 | 1005.4 |
| 20260502180516 | 11 | 293 | 4.8 | 14.5 | 0.00 | 0.00 | 0.00 | 36 | 1005.7 |
| 20260502170516 | 10 | 23 | 3.2 | 8.0 | 0.00 | 0.00 | 0.00 | 38 | 1006.1 |
| 20260502163516 | 9 | 315 | 4.8 | 9.7 | 0.00 | 0.00 | 0.00 | 38 | 1006.5 |
| 20260502162516 | 9 | 270 | 8.0 | 17.7 | 0.00 | 0.00 | 0.00 | 38 | 1006.5 |
| 20260502161537 | 8 | 315 | 3.2 | 8.0 | 0.00 | 0.00 | 0.00 | 39 | 1006.6 |
| 20260502160536 | 8 | 270 | 9.7 | 17.7 | 0.00 | 0.00 | 0.00 | 39 | 1006.7 |
| 20260502151516 | 8 | 315 | 4.8 | 8.0 | 0.00 | 0.00 | 0.00 | 40 | 1007.0 |
| 20260502150536 | 8 | 315 | 3.2 | 9.7 | 0.00 | 0.00 | 0.00 | 39 | 1007.0 |
| 20260502130517 | 5 | 248 | 4.8 | 9.7 | 0.00 | 0.00 | 0.00 | 49 | 1007.9 |
| 20260502123516 | 3 | 248 | 4.8 | 9.7 | 0.00 | 0.00 | 0.00 | 53 | 1008.1 |
| 20260502122516 | 3 | 248 | 3.2 | 8.0 | 0.00 | 0.00 | 0.00 | 56 | 1008.1 |
| 20260502121516 | 2 | 248 | 1.6 | 6.4 | 0.00 | 0.00 | 0.00 | 59 | 1008.2 |
| 20260502120556 | 1 | 0.0 | 1.6 | 0.00 | 0.00 | 0.00 | 59 | 1008.1 | |
| 20260502115516 | 1 | 0.0 | 1.6 | 0.00 | 0.00 | 0.00 | 59 | 1008.2 | |
| 20260502114516 | 0 | 0.0 | 0.0 | 0.00 | 0.00 | 0.00 | 60 | 1008.1 | |
| 20260502113516 | 0 | 0.0 | 0.0 | 0.00 | 0.00 | 0.00 | 61 | 1008.2 | |
| 20260502112516 | 0 | 0.0 | 0.0 | 0.00 | 0.00 | 0.00 | 63 | 1008.2 | |
| 20260502111516 | 0 | 0.0 | 0.0 | 0.00 | 0.00 | 0.00 | 64 | 1008.1 | |
| 20260502110516 | 0 | 0.0 | 0.0 | 0.00 | 0.00 | 0.00 | 64 | 1008.1 | |
| 20260502105516 | -1 | 0.0 | 0.0 | 0.00 | 0.00 | 0.00 | 65 | 1008.1 | |
| 20260502104516 | -1 | 0.0 | 0.0 | 0.00 | 0.00 | 0.00 | 66 | 1008.1 | |
| 20260502103536 | -1 | 0.0 | 0.0 | 0.00 | 0.00 | 0.00 | 66 | 1008.1 | |
| 20260502102516 | -1 | 0.0 | 0.0 | 0.00 | 0.00 | 0.00 | 65 | 1008.1 | |
| 20260502101516 | -1 | 0.0 | 0.0 | 0.00 | 0.00 | 0.00 | 65 | 1008.1 | |
| 20260502100516 | -1 | 0.0 | 0.0 | 0.00 | 0.00 | 0.00 | 65 | 1008.1 | |
| 20260502091517 | -1 | 0.0 | 0.0 | 0.00 | 0.00 | 0.00 | 65 | 1008.2 | |
| 20260502091016 | -1 | 0.0 | 0.0 | 0.00 | 0.00 | 0.00 | 65 | 1008.2 | |
| 20260502071016 | -1 | 0.0 | 0.0 | 0.00 | 0.00 | 0.00 | 66 | 1008.5 | |
| 20260502070016 | -1 | 0.0 | 0.0 | 0.00 | 0.00 | 0.00 | 65 | 1008.5 | |
| 20260502065016 | -1 | 0.0 | 1.6 | 0.00 | 0.00 | 0.00 | 66 | 1008.7 | |
| 20260502064056 | -1 | 0.0 | 0.0 | 0.00 | 0.00 | 0.00 | 64 | 1008.7 | |
| 20260502063016 | -1 | 0.0 | 3.2 | 0.00 | 0.00 | 0.00 | 64 | 1008.9 | |
| 20260502062016 | -1 | 0.0 | 1.6 | 0.00 | 0.00 | 0.00 | 65 | 1008.9 | |
| 20260502061036 | -1 | 0.0 | 0.0 | 0.00 | 0.00 | 0.00 | 66 | 1008.9 | |
| 20260502060016 | -1 | 0.0 | 0.0 | 0.00 | 0.00 | 0.00 | 66 | 1008.9 | |
| 20260502055016 | -1 | 0.0 | 1.6 | 0.00 | 0.00 | 0.00 | 68 | 1009.0 | |
| 20260502054016 | -1 | 0.0 | 0.0 | 0.00 | 0.00 | 0.00 | 68 | 1009.1 | |
| 20260502053016 | -1 | 0.0 | 0.0 | 0.00 | 0.00 | 0.00 | 68 | 1009.0 | |
| 20260502052016 | -1 | 0.0 | 0.0 | 0.00 | 0.00 | 0.00 | 70 | 1009.1 | |
| 20260502051056 | -1 | 0.0 | 0.0 | 0.00 | 0.00 | 0.00 | 70 | 1009.1 |